Algona, IA

2:54 PM CDT on September 28, 2016 (GMT -0500)
Algona Municipal

Weather History for KAXA - August, 2013

Change the Weather History Date:

Sunday, August 25, 2013

  Actual Average Record
Temperature  
Mean Temperature 81 °F -  
Max Temperature 91 °F 78 °F 91 °F (2003)
Min Temperature 71 °F 59 °F 46 °F (2008)
Cooling Degree Days 16    
Growing Degree Days 31 (Base 50)    
Moisture  
Dew Point 73 °F    
Average Humidity 79    
Maximum Humidity 94    
Minimum Humidity 55    
Precipitation  
Precipitation 0.00 in - - ()
Sea Level Pressure  
Sea Level Pressure 30.06 in    
Wind  
Wind Speed 13 mph (SSW)    
Max Wind Speed 20 mph    
Max Gust Speed 28 mph    
Visibility 9 miles    
Events      
Averages and records for this station are not official NWS values.
T = Trace of Precipitation, MM = Missing Value Source: NWS Daily Summary

Daily Weather History Graph

Daily Weather History Graph

Search for Another Location

Airport or City:

Trip Planner

Search our weather history database for the weather conditions in past years. The results will help you decide how hot, cold, wet, or windy it might be!

Date:

Astronomy

Aug. 25, 2013 Rise Set
Actual Time 6:34 AM CDT 8:03 PM CDT
Civil Twilight 6:04 AM CDT 8:32 PM CDT
Nautical Twilight 5:28 AM CDT 9:08 PM CDT
Astronomical Twilight 4:49 AM CDT 9:46 PM CDT
Moon 10:24 PM CDT (8/25) 11:46 AM CDT (8/25)
Length of Visible Light 14h 28m
Length of Day
13h 29m
Waning Gibbous, 75% of the Moon is Illuminated
Aug 25
Waning Gibbous
Aug 28
Last Quarter
Sep 5
New
Sep 12
First Quarter
Sep 19
Full

Hourly Weather History & Observations

Time (CDT) Temp. Heat Index Dew Point Humidity Pressure Visibility Wind Dir Wind Speed Gust Speed Precip Events Conditions
12:15 AM 75.2 °F - 71.6 °F 89% 30.05 in 10.0 mi South 11.5 mph - N/A   Clear
12:35 AM 73.4 °F - 71.6 °F 94% 30.05 in 10.0 mi South 10.4 mph - N/A   Clear
12:55 AM 73.4 °F - 71.6 °F 94% 30.05 in 9.0 mi South 11.5 mph - N/A   Clear
1:15 AM 73.4 °F - 71.6 °F 94% 30.06 in 10.0 mi South 10.4 mph - N/A   Clear
1:35 AM 73.4 °F - 69.8 °F 88% 30.06 in 9.0 mi South 9.2 mph - N/A   Clear
1:55 AM 73.4 °F - 69.8 °F 88% 30.06 in 8.0 mi South 11.5 mph - N/A   Clear
2:15 AM 73.4 °F - 69.8 °F 88% 30.06 in 9.0 mi South 12.7 mph - N/A   Clear
2:35 AM 73.4 °F - 69.8 °F 88% 30.07 in 9.0 mi South 11.5 mph - N/A   Clear
2:55 AM 73.4 °F - 69.8 °F 88% 30.07 in 9.0 mi South 12.7 mph - N/A   Clear
3:15 AM 73.4 °F - 69.8 °F 88% 30.07 in 9.0 mi South 11.5 mph - N/A   Clear
3:35 AM 71.6 °F - 69.8 °F 94% 30.07 in 8.0 mi South 11.5 mph - N/A   Clear
3:55 AM 71.6 °F - 69.8 °F 94% 30.08 in 7.0 mi South 12.7 mph - N/A   Clear
4:15 AM 71.6 °F - 69.8 °F 94% 30.08 in 7.0 mi South 13.8 mph - N/A   Clear
4:35 AM 71.6 °F - 69.8 °F 94% 30.08 in 7.0 mi South 13.8 mph - N/A   Clear
4:55 AM 71.6 °F - 69.8 °F 94% 30.09 in 7.0 mi South 11.5 mph - N/A   Clear
5:15 AM 71.6 °F - 69.8 °F 94% 30.09 in 6.0 mi South 11.5 mph - N/A   Clear
5:35 AM 71.6 °F - 69.8 °F 94% 30.09 in 6.0 mi South 12.7 mph - N/A   Clear
5:55 AM 71.6 °F - 69.8 °F 94% 30.09 in 6.0 mi South 12.7 mph - N/A   Clear
6:15 AM 71.6 °F - 69.8 °F 94% 30.09 in 6.0 mi South 12.7 mph - N/A   Clear
6:35 AM 71.6 °F - 69.8 °F 94% 30.10 in 4.0 mi South 12.7 mph - N/A   Clear
6:55 AM 71.6 °F - 69.8 °F 94% 30.10 in 4.0 mi South 11.5 mph 17.3 mph N/A   Clear
7:15 AM 71.6 °F - 69.8 °F 94% 30.11 in - South 13.8 mph - N/A   Unknown
7:35 AM 71.6 °F - 69.8 °F 94% 30.10 in 5.0 mi South 13.8 mph - N/A   Clear
7:55 AM 73.4 °F - 71.6 °F 94% 30.10 in 5.0 mi South 13.8 mph - N/A   Clear
8:15 AM 73.4 °F - 71.6 °F 94% 30.10 in 6.0 mi South 15.0 mph - N/A   Clear
8:35 AM 75.2 °F - 71.6 °F 89% 30.10 in 6.0 mi South 15.0 mph - N/A   Clear
8:55 AM 77.0 °F - 71.6 °F 83% 30.10 in 7.0 mi South 13.8 mph 19.6 mph N/A   Clear
9:15 AM 77.0 °F - 71.6 °F 83% 30.09 in 7.0 mi SSW 16.1 mph - N/A   Clear
9:35 AM 78.8 °F - 71.6 °F 78% 30.09 in 8.0 mi SSW 18.4 mph - N/A   Clear
9:55 AM 80.6 °F 85.4 °F 73.4 °F 79% 30.09 in 8.0 mi SSW 17.3 mph 23.0 mph N/A   Clear
10:15 AM 80.6 °F 85.4 °F 73.4 °F 79% 30.08 in 9.0 mi SSW 17.3 mph - N/A   Clear
10:35 AM 82.4 °F 88.2 °F 73.4 °F 74% 30.08 in 9.0 mi SSW 18.4 mph 25.3 mph N/A   Clear
10:55 AM 82.4 °F 88.2 °F 73.4 °F 74% 30.08 in 9.0 mi SSW 16.1 mph 25.3 mph N/A   Clear
11:15 AM 84.2 °F 90.9 °F 73.4 °F 70% 30.08 in 9.0 mi SSW 17.3 mph - N/A   Clear
11:35 AM 84.2 °F 90.9 °F 73.4 °F 70% 30.08 in 9.0 mi SSW 15.0 mph 24.2 mph N/A   Clear
11:55 AM 86.0 °F 93.4 °F 73.4 °F 66% 30.07 in 10.0 mi SSW 17.3 mph - N/A   Clear
12:15 PM 86.0 °F 93.4 °F 73.4 °F 66% 30.07 in 10.0 mi SSW 18.4 mph - N/A   Clear
12:35 PM 86.0 °F 93.4 °F 73.4 °F 66% 30.07 in 9.0 mi SSW 15.0 mph 23.0 mph N/A   Clear
12:55 PM 87.8 °F 95.6 °F 73.4 °F 62% 30.06 in 9.0 mi SSW 15.0 mph 21.9 mph N/A   Clear
1:15 PM 87.8 °F 95.6 °F 73.4 °F 62% 30.06 in 9.0 mi SSW 18.4 mph 26.5 mph N/A   Clear
1:35 PM 89.6 °F 98.2 °F 73.4 °F 59% 30.05 in 10.0 mi SSW 17.3 mph 24.2 mph N/A   Clear
1:55 PM 89.6 °F 99.8 °F 75.2 °F 62% 30.05 in 10.0 mi SSW 16.1 mph 21.9 mph N/A   Clear
2:15 PM 89.6 °F 99.8 °F 75.2 °F 62% 30.05 in 10.0 mi South 17.3 mph 24.2 mph N/A   Clear
2:35 PM 89.6 °F 98.2 °F 73.4 °F 59% 30.04 in 10.0 mi SSW 17.3 mph 27.6 mph N/A   Clear
2:55 PM 89.6 °F 98.2 °F 73.4 °F 59% 30.04 in 10.0 mi SSW 18.4 mph 25.3 mph N/A   Clear
3:15 PM 91.4 °F 100.1 °F 73.4 °F 55% 30.03 in 9.0 mi SSW 16.1 mph 26.5 mph N/A   Clear
3:35 PM 91.4 °F 102.5 °F 75.2 °F 59% 30.03 in 9.0 mi SSW 13.8 mph 23.0 mph N/A   Clear
3:55 PM 91.4 °F 102.5 °F 75.2 °F 59% 30.02 in 10.0 mi South 17.3 mph 25.3 mph N/A   Clear
4:15 PM 91.4 °F 102.5 °F 75.2 °F 59% 30.02 in 10.0 mi SSW 19.6 mph 26.5 mph N/A   Clear
4:35 PM 91.4 °F 102.5 °F 75.2 °F 59% 30.02 in 10.0 mi SSW 17.3 mph 25.3 mph N/A   Clear
4:55 PM 89.6 °F 99.8 °F 75.2 °F 62% 30.02 in 10.0 mi SSW 16.1 mph 23.0 mph N/A   Clear
5:15 PM 89.6 °F 99.8 °F 75.2 °F 62% 30.02 in 10.0 mi SSW 18.4 mph - N/A   Clear
5:35 PM 89.6 °F 99.8 °F 75.2 °F 62% 30.02 in 10.0 mi SSW 17.3 mph 25.3 mph N/A   Clear
5:55 PM 89.6 °F 99.8 °F 75.2 °F 62% 30.02 in 10.0 mi SSW 13.8 mph - N/A   Clear
6:15 PM 87.8 °F 99.7 °F 77.0 °F 70% 30.02 in 10.0 mi South 13.8 mph - N/A   Clear
6:35 PM 87.8 °F 99.7 °F 77.0 °F 70% 30.02 in 10.0 mi SSW 11.5 mph - N/A   Clear
6:55 PM 86.0 °F 95.1 °F 75.2 °F 70% 30.02 in 9.0 mi SSW 12.7 mph - N/A   Clear
7:15 PM 86.0 °F 95.1 °F 75.2 °F 70% 30.02 in 10.0 mi SSW 11.5 mph - N/A   Clear
7:35 PM 84.2 °F 92.3 °F 75.2 °F 74% 30.02 in 10.0 mi SSW 10.4 mph - N/A   Clear
7:55 PM 82.4 °F 89.5 °F 75.2 °F 79% 30.02 in 9.0 mi South 11.5 mph - N/A   Clear
8:15 PM 82.4 °F 89.5 °F 75.2 °F 79% 30.03 in 9.0 mi SSW 11.5 mph - N/A   Clear
8:35 PM 80.6 °F 86.2 °F 75.2 °F 84% 30.03 in 10.0 mi South 11.5 mph - N/A   Clear
8:55 PM 80.6 °F 85.4 °F 73.4 °F 79% 30.04 in 10.0 mi South 12.7 mph - N/A   Clear
9:15 PM 80.6 °F 85.4 °F 73.4 °F 79% 30.05 in 10.0 mi South 10.4 mph - N/A   Clear
9:35 PM 78.8 °F - 73.4 °F 83% 30.05 in 10.0 mi South 11.5 mph - N/A   Clear
9:55 PM 78.8 °F - 73.4 °F 83% 30.05 in 10.0 mi South 12.7 mph - N/A   Clear
10:15 PM 78.8 °F - 73.4 °F 83% 30.05 in 10.0 mi SSW 12.7 mph - N/A   Clear
10:35 PM 78.8 °F - 73.4 °F 83% 30.06 in 10.0 mi South 13.8 mph - N/A   Clear
10:55 PM 78.8 °F - 73.4 °F 83% 30.05 in 10.0 mi South 13.8 mph - N/A   Clear
11:15 PM 78.8 °F - 75.2 °F 89% 30.06 in 10.0 mi South 13.8 mph - N/A   Clear
11:35 PM 78.8 °F - 75.2 °F 89% 30.06 in 10.0 mi SSW 13.8 mph 20.7 mph N/A   Clear
11:55 PM 78.8 °F - 75.2 °F 89% 30.06 in 9.0 mi SSW 13.8 mph 19.6 mph N/A   Clear